Regional Weather Roundup
Issued by NWS

Home | Current Version | Previous Version | Graphics & Text | Print | Product List | Glossary On
Versions: 1 2 3 4 5 6 7 8 9 10 11 12 13 14 15 16 17 18 19 20 21 22 23 24 25 26 27 28 29 30 31 32 33 34 35 36 37 38 39 40 41 42 43 44 45 46 47 48 49 50
000
ASUS43 KOAX 261510
RWRNE

WEATHER ROUNDUP FOR NEBRASKA
NATIONAL WEATHER SERVICE OMAHA NE
1000 AM CDT WED JUL 26 2017

NOTES: SATELLITE DATA IS BEING USED TO AUGMENT CLOUD COVER ABOVE
       12000 FEET.
       "FAIR" INDICATES FEW OR NO CLOUDS BELOW 12,000 FEET WITH NO
       SIGNIFICANT WEATHER AND/OR OBSTRUCTIONS TO VISIBILITY.


NEZ001>004-019>022-054>056-261600-
NEBRASKA PANHANDLE

CITY           SKY/WX    TMP DP  RH WIND       PRES   REMARKS
SCOTTSBLUFF    CLOUDY    66  61  84 W9        30.20R
ALLIANCE       CLOUDY    70  59  68 N12       30.16S
CHADRON        MOSUNNY   75  53  46 NE7       30.16R
GORDON         CLOUDY    71  64  76 N9        30.16R
KIMBALL        CLOUDY    66  60  80 N13       30.23S
SIDNEY         CLOUDY    72  63  73 N15       30.18R
$$

NEZ057>060-069>072-079>082-261600-
SOUTHWEST NEBRASKA

CITY           SKY/WX    TMP DP  RH WIND       PRES   REMARKS
NORTH PLATTE   CLOUDY    73  67  81 NE10      30.03S
IMPERIAL       CLOUDY    70  64  81 N13       30.07R
LEXINGTON      CLOUDY    73  69  87 NE9       29.99R
MCCOOK         CLOUDY    73  70  90 N12       29.97R
OGALLALA       CLOUDY    73  65  75 N9        30.09R
$$

NEZ005>010-023>029-035>040-094-261600-
NORTH CENTRAL NEBRASKA

CITY           SKY/WX    TMP DP  RH WIND       PRES   REMARKS
VALENTINE      CLOUDY    76  65  68 NE13      30.08R
AINSWORTH      CLOUDY    70  69  96 NE3       30.07F
BROKEN BOW     CLOUDY    72  67  84 N13       30.03R
O`NEILL        CLOUDY    71  71  99 NE5       30.05S
ORD            CLOUDY    72  68  87 N8        30.02R
THEDFORD       CLOUDY    70  68  94 N6        30.09S
$$

NEZ041-046>049-061>064-073>077-083>087-261600-
SOUTH CENTRAL NEBRASKA

CITY           SKY/WX    TMP DP  RH WIND       PRES   REMARKS
GRAND ISLAND   CLOUDY    74  74 100 E7        29.99R
AURORA         CLOUDY    74  74  98 E9        29.98S
HASTINGS       CLOUDY    74  72  93 E7        29.97S
HEBRON         CLOUDY    76  74  94 SE9       29.94F
HOLDREGE       CLOUDY    73  70  92 E7        29.97R
KEARNEY        CLOUDY    73  71  93 E10       29.98R
YORK           CLOUDY    75  73  94 E6        29.98S
$$

NEZ011>018-030>034-042>045-261600-
NORTHEAST NEBRASKA

CITY           SKY/WX    TMP DP  RH WIND       PRES   REMARKS
NORFOLK        CLOUDY    73  70  90 N6        30.01R
ALBION         CLOUDY    74  72  95 NE3       30.01R
BLAIR          LGT RAIN  76  74  94 S9        29.99R
COLUMBUS       CLOUDY    75  73  93 S7        29.98S
FREMONT        LGT RAIN  76  74  92 S14G20    29.98R
TEKAMAH        CLOUDY    76  72  87 S7        29.97S
WAYNE          CLOUDY    74  73  98 NE7       30.01R
$$

NEZ050>053-065>068-078-088>093-261600-
SOUTHEAST NEBRASKA

CITY           SKY/WX    TMP DP  RH WIND       PRES   REMARKS
LINCOLN        RAIN      75  72  90 S6        29.97S FOG
OMAHA EPPLEY   LGT RAIN  77  73  87 S12       29.98S
BEATRICE       CLOUDY    75  72  91 S13       29.96F
FALLS CITY     LGT RAIN  74  74 100 SE10      29.98F
NEBRASKA CITY  RAIN      72  72 100 SE8       29.99F
$$

NEZ044-045-051>053-067-261600-
OMAHA AREA

CITY           SKY/WX    TMP DP  RH WIND       PRES   REMARKS
OMAHA EPPLEY   LGT RAIN  77  73  87 S12       29.98S
BLAIR          LGT RAIN  76  74  94 S9        29.99R
FREMONT        LGT RAIN  76  74  92 S14G20    29.98R
MILLARD        CLOUDY    76  75  95 S5        29.98S
OFFUTT AFB     CLOUDY    75  72  88 SE8       29.98S
WAHOO          CLOUDY    75  74  95 S8        29.98S
$$




USA.gov is the U.S. government's official web portal to all federal, state and local government web resources and services.